Torna al catalogo

SATCOM 3 DEB

AttivoHEO
NORAD 49956·DEBRIS·🇺🇸 United States

Lanciato Dec 7, 1979 da Cape Canaveral Space Force Station

Loading…

Prossimi Passaggi (prossime 24 ore)

TLE

AggiornatoSource: Space-Track

Epoca: Sep 14, 2026, 01:39 UTC

1 49956U 79101AA  26257.06896322 -.00000161  00000-0  00000-0 0  9998
2 49956   8.1105  92.8935 5087553  84.6399 329.1953  1.79229966 15591

Traccia SATCOM 3 DEB in tempo reale con AllMySat

Download on the App Store